Time,TemperatureF,DewpointF,PressureIn,WindDirection,WindDirectionDegrees,WindSpeedMPH,WindSpeedGustMPH,Humidity,HourlyPrecipIn,Conditions,Clouds,dailyrainin,SoftwareType,DateUTC
2013-01-14 00:14:00,30.8,27.0,30.29,NE,40,3.0,8.0,86,0.00,,,0.00,weatherlink.com 1.10,2013-01-14 06:14:00,
2013-01-14 00:29:00,30.6,27.0,30.29,NNE,22,3.0,9.0,86,0.00,,,0.00,weatherlink.com 1.10,2013-01-14 06:29:00,
2013-01-14 00:45:00,30.4,26.0,30.29,North,8,8.0,9.0,85,0.00,,,0.00,weatherlink.com 1.10,2013-01-14 06:45:00,
2013-01-14 01:00:00,30.1,26.0,30.28,NNW,340,5.0,11.0,85,0.00,,,0.00,weatherlink.com 1.10,2013-01-14 07:00:00,
2013-01-14 01:15:00,29.9,26.0,30.29,NNW,340,5.0,12.0,86,0.00,,,0.00,weatherlink.com 1.10,2013-01-14 07:15:00,
2013-01-14 01:30:00,29.7,26.0,30.30,SE,137,1.0,7.0,86,0.00,,,0.00,weatherlink.com 1.10,2013-01-14 07:30:00,
2013-01-14 01:45:00,29.6,26.0,30.31,North,8,6.0,10.0,87,0.00,,,0.00,weatherlink.com 1.10,2013-01-14 07:45:00,
2013-01-14 02:00:00,29.4,26.0,30.31,NE,37,2.0,8.0,87,0.00,,,0.00,weatherlink.com 1.10,2013-01-14 08:00:00,
2013-01-14 02:15:00,29.2,26.0,30.32,NNW,348,7.0,11.0,86,0.00,,,0.00,weatherlink.com 1.10,2013-01-14 08:15:00,
2013-01-14 02:30:00,28.7,25.0,30.32,North,6,6.0,13.0,84,0.00,,,0.00,weatherlink.com 1.10,2013-01-14 08:30:00,
2013-01-14 02:45:00,28.3,24.0,30.32,NNE,26,4.0,15.0,84,0.00,,,0.00,weatherlink.com 1.10,2013-01-14 08:45:00,
2013-01-14 03:00:00,28.2,24.0,30.32,NNE,26,10.0,10.0,85,0.00,,,0.00,weatherlink.com 1.10,2013-01-14 09:00:00,
2013-01-14 03:15:00,28.2,24.0,30.32,WNW,297,7.0,8.0,85,0.00,,,0.00,weatherlink.com 1.10,2013-01-14 09:15:00,
2013-01-14 03:30:00,28.2,24.0,30.31,NE,47,6.0,13.0,84,0.00,,,0.00,weatherlink.com 1.10,2013-01-14 09:30:00,
2013-01-14 03:45:00,28.1,24.0,30.32,NNE,27,5.0,12.0,84,0.00,,,0.00,weatherlink.com 1.10,2013-01-14 09:45:00,
2013-01-14 04:00:00,28.1,24.0,30.32,NNE,22,5.0,10.0,85,0.00,,,0.00,weatherlink.com 1.10,2013-01-14 10:00:00,
2013-01-14 04:15:00,28.1,24.0,30.32,NNE,28,2.0,14.0,84,0.00,,,0.00,weatherlink.com 1.10,2013-01-14 10:15:00,
2013-01-14 04:30:00,28.0,24.0,30.31,NNW,343,7.0,11.0,85,0.00,,,0.00,weatherlink.com 1.10,2013-01-14 10:30:00,
2013-01-14 04:45:00,28.0,24.0,30.32,NNW,343,5.0,11.0,85,0.00,,,0.00,weatherlink.com 1.10,2013-01-14 10:45:00,
2013-01-14 05:00:00,28.1,24.0,30.33,NE,44,2.0,7.0,85,0.00,,,0.00,weatherlink.com 1.10,2013-01-14 11:00:00,
2013-01-14 05:15:00,28.2,24.0,30.32,North,352,2.0,10.0,85,0.00,,,0.00,weatherlink.com 1.10,2013-01-14 11:15:00,
2013-01-14 05:30:00,28.2,25.0,30.31,North,8,4.0,8.0,86,0.00,,,0.00,weatherlink.com 1.10,2013-01-14 11:30:00,
2013-01-14 05:45:00,28.0,24.0,30.31,NNE,19,2.0,9.0,86,0.00,,,0.00,weatherlink.com 1.10,2013-01-14 11:45:00,
2013-01-14 06:00:00,27.4,24.0,30.31,NNE,24,12.0,14.0,85,0.00,,,0.00,weatherlink.com 1.10,2013-01-14 12:00:00,
2013-01-14 06:15:00,26.9,23.0,30.30,North,354,3.0,13.0,85,0.00,,,0.00,weatherlink.com 1.10,2013-01-14 12:15:00,
2013-01-14 06:30:00,26.8,23.0,30.30,NE,39,4.0,9.0,86,0.00,,,0.00,weatherlink.com 1.10,2013-01-14 12:30:00,
2013-01-14 06:45:00,26.7,23.0,30.30,NNW,344,6.0,12.0,85,0.00,,,0.00,weatherlink.com 1.10,2013-01-14 12:45:00,
2013-01-14 07:00:00,26.6,23.0,30.29,NNE,18,5.0,11.0,86,0.00,,,0.00,weatherlink.com 1.10,2013-01-14 13:00:00,
2013-01-14 07:15:00,26.8,23.0,30.30,NE,36,7.0,10.0,86,0.00,,,0.00,weatherlink.com 1.10,2013-01-14 13:15:00,
2013-01-14 07:30:00,26.6,23.0,30.31,NNE,30,5.0,8.0,85,0.00,,,0.00,weatherlink.com 1.10,2013-01-14 13:30:00,
2013-01-14 07:45:00,26.8,23.0,30.32,North,352,13.0,13.0,86,0.00,,,0.00,weatherlink.com 1.10,2013-01-14 13:45:00,
2013-01-14 08:00:00,27.0,23.0,30.32,North,357,7.0,12.0,86,0.00,,,0.00,weatherlink.com 1.10,2013-01-14 14:00:00,
2013-01-14 08:15:00,27.1,23.0,30.34,NNE,20,4.0,9.0,85,0.00,,,0.00,weatherlink.com 1.10,2013-01-14 14:15:00,
2013-01-14 08:30:00,27.2,23.0,30.36,North,352,5.0,9.0,85,0.00,,,0.00,weatherlink.com 1.10,2013-01-14 14:30:00,
2013-01-14 08:45:00,27.5,23.0,30.36,NNE,13,2.0,8.0,84,0.00,,,0.00,weatherlink.com 1.10,2013-01-14 14:45:00,
2013-01-14 09:00:00,27.7,24.0,30.36,North,6,5.0,8.0,84,0.00,,,0.00,weatherlink.com 1.10,2013-01-14 15:00:00,
2013-01-14 09:15:00,27.7,23.0,30.36,NNE,20,9.0,11.0,83,0.00,,,0.00,weatherlink.com 1.10,2013-01-14 15:15:00,
2013-01-14 09:30:00,27.3,23.0,30.36,North,352,9.0,12.0,84,0.00,,,0.00,weatherlink.com 1.10,2013-01-14 15:30:00,
2013-01-14 09:45:00,27.5,23.0,30.37,NNE,22,4.0,11.0,83,0.00,,,0.00,weatherlink.com 1.10,2013-01-14 15:45:00,
2013-01-14 10:00:00,28.0,23.0,30.36,North,11,5.0,13.0,82,0.00,,,0.00,weatherlink.com 1.10,2013-01-14 16:00:00,
2013-01-14 10:15:00,28.2,24.0,30.33,NNE,23,4.0,12.0,83,0.00,,,0.00,weatherlink.com 1.10,2013-01-14 16:15:00,
2013-01-14 10:30:00,28.1,24.0,30.31,NE,37,3.0,10.0,85,0.00,,,0.00,weatherlink.com 1.10,2013-01-14 16:30:00,
2013-01-14 10:45:00,27.9,23.0,30.39,West,270,3.0,10.0,83,0.00,,,0.00,weatherlink.com 1.10,2013-01-14 16:45:00,
2013-01-14 11:00:00,28.1,24.0,30.41,WSW,248,2.0,10.0,84,0.00,,,0.00,weatherlink.com 1.10,2013-01-14 17:00:00,
2013-01-14 11:15:00,28.1,24.0,30.38,NNE,23,3.0,14.0,83,0.00,,,0.00,weatherlink.com 1.10,2013-01-14 17:15:00,
2013-01-14 11:30:00,28.0,23.0,30.41,NNE,28,4.0,14.0,81,0.00,,,0.00,weatherlink.com 1.10,2013-01-14 17:30:00,
2013-01-14 11:45:00,28.0,23.0,30.40,NNW,340,3.0,20.0,80,0.00,,,0.00,weatherlink.com 1.10,2013-01-14 17:45:00,
2013-01-14 12:00:00,28.4,23.0,30.42,ENE,68,7.0,14.0,79,0.00,,,0.00,weatherlink.com 1.10,2013-01-14 18:00:00,
2013-01-14 12:15:00,28.4,22.0,30.39,North,4,9.0,21.0,78,0.00,,,0.00,weatherlink.com 1.10,2013-01-14 18:15:00,
2013-01-14 12:30:00,28.4,22.0,30.38,NE,54,3.0,13.0,78,0.00,,,0.00,weatherlink.com 1.10,2013-01-14 18:30:00,
2013-01-14 12:45:00,28.7,23.0,30.37,NNE,30,4.0,8.0,79,0.00,,,0.00,weatherlink.com 1.10,2013-01-14 18:45:00,
2013-01-14 13:00:00,28.9,23.0,30.34,NNE,30,10.0,13.0,79,0.00,,,0.00,weatherlink.com 1.10,2013-01-14 19:00:00,
2013-01-14 13:15:00,28.9,23.0,30.33,NE,36,3.0,11.0,80,0.00,,,0.00,weatherlink.com 1.10,2013-01-14 19:15:00,
2013-01-14 13:31:00,29.5,24.0,30.33,North,4,3.0,9.0,79,0.00,,,0.00,weatherlink.com 1.10,2013-01-14 19:31:00,
2013-01-14 13:46:00,29.2,23.0,30.31,NNE,19,10.0,14.0,78,0.00,,,0.00,weatherlink.com 1.10,2013-01-14 19:46:00,
2013-01-14 14:01:00,28.8,24.0,30.32,NE,40,2.0,10.0,81,0.00,,,0.00,weatherlink.com 1.10,2013-01-14 20:01:00,
2013-01-14 14:16:00,28.6,25.0,30.29,North,8,3.0,7.0,85,0.00,,,0.00,weatherlink.com 1.10,2013-01-14 20:16:00,
2013-01-14 14:31:00,28.5,25.0,30.32,ENE,74,3.0,8.0,87,0.00,,,0.00,weatherlink.com 1.10,2013-01-14 20:31:00,
2013-01-14 14:46:00,28.7,26.0,30.30,NNE,16,3.0,6.0,89,0.00,,,0.00,weatherlink.com 1.10,2013-01-14 20:46:00,
2013-01-14 15:01:00,28.8,26.0,30.32,North,10,1.0,8.0,89,0.00,,,0.00,weatherlink.com 1.10,2013-01-14 21:01:00,
2013-01-14 15:16:00,29.0,27.0,30.32,ENE,70,5.0,5.0,90,0.00,,,0.00,weatherlink.com 1.10,2013-01-14 21:16:00,
2013-01-14 15:31:00,28.9,26.0,30.33,NNW,335,2.0,8.0,89,0.00,,,0.00,weatherlink.com 1.10,2013-01-14 21:31:00,
2013-01-14 15:46:00,29.1,26.0,30.34,ENE,58,3.0,9.0,89,0.00,,,0.00,weatherlink.com 1.10,2013-01-14 21:46:00,
2013-01-14 16:01:00,29.1,26.0,30.34,NNE,24,2.0,5.0,89,0.00,,,0.00,weatherlink.com 1.10,2013-01-14 22:01:00,
2013-01-14 16:16:00,29.1,26.0,30.34,North,11,2.0,8.0,89,0.00,,,0.00,weatherlink.com 1.10,2013-01-14 22:16:00,
2013-01-14 16:31:00,29.1,26.0,30.35,WNW,303,1.0,6.0,89,0.00,,,0.00,weatherlink.com 1.10,2013-01-14 22:31:00,
2013-01-14 16:46:00,28.9,26.0,30.35,NNE,13,5.0,5.0,90,0.00,,,0.00,weatherlink.com 1.10,2013-01-14 22:46:00,
2013-01-14 17:01:00,28.7,26.0,30.34,ENE,61,1.0,8.0,89,0.00,,,0.00,weatherlink.com 1.10,2013-01-14 23:01:00,
2013-01-14 17:16:00,28.5,26.0,30.35,NE,34,2.0,5.0,89,0.00,,,0.00,weatherlink.com 1.10,2013-01-14 23:16:00,
2013-01-14 17:31:00,28.4,26.0,30.34,NNE,27,2.0,5.0,89,0.00,,,0.00,weatherlink.com 1.10,2013-01-14 23:31:00,
2013-01-14 17:46:00,28.3,26.0,30.35,North,1,1.0,5.0,89,0.00,,,0.00,weatherlink.com 1.10,2013-01-14 23:46:00,
2013-01-14 18:01:00,28.2,25.0,30.34,NNE,12,2.0,3.0,89,0.00,,,0.00,weatherlink.com 1.10,2013-01-15 00:01:00,
2013-01-14 18:16:00,28.1,25.0,30.34,North,349,2.0,5.0,89,0.00,,,0.00,weatherlink.com 1.10,2013-01-15 00:16:00,
2013-01-14 18:31:00,28.1,25.0,30.34,NE,37,1.0,4.0,89,0.00,,,0.00,weatherlink.com 1.10,2013-01-15 00:31:00,
2013-01-14 18:46:00,28.1,25.0,30.34,North,9,3.0,5.0,89,0.00,,,0.00,weatherlink.com 1.10,2013-01-15 00:46:00,
2013-01-14 19:01:00,28.1,25.0,30.33,NW,314,4.0,4.0,88,0.00,,,0.00,weatherlink.com 1.10,2013-01-15 01:01:00,
2013-01-14 19:16:00,28.0,25.0,30.33,NE,40,1.0,3.0,89,0.00,,,0.00,weatherlink.com 1.10,2013-01-15 01:16:00,
2013-01-14 19:31:00,28.0,25.0,30.32,NNE,20,2.0,4.0,88,0.00,,,0.00,weatherlink.com 1.10,2013-01-15 01:31:00,
2013-01-14 19:46:00,28.0,25.0,30.32,NNE,30,3.0,4.0,88,0.00,,,0.00,weatherlink.com 1.10,2013-01-15 01:46:00,
2013-01-14 20:01:00,28.0,25.0,30.32,North,4,2.0,4.0,88,0.00,,,0.00,weatherlink.com 1.10,2013-01-15 02:01:00,
2013-01-14 20:16:00,28.0,25.0,30.31,NNE,22,2.0,4.0,88,0.00,,,0.00,weatherlink.com 1.10,2013-01-15 02:16:00,
2013-01-14 20:31:00,27.9,25.0,30.31,NE,38,2.0,4.0,88,0.00,,,0.00,weatherlink.com 1.10,2013-01-15 02:31:00,
2013-01-14 20:46:00,27.9,25.0,30.30,NE,39,2.0,5.0,88,0.00,,,0.00,weatherlink.com 1.10,2013-01-15 02:46:00,
2013-01-14 21:01:00,27.8,25.0,30.30,North,5,2.0,5.0,88,0.00,,,0.00,weatherlink.com 1.10,2013-01-15 03:01:00,
2013-01-14 21:16:00,27.8,25.0,30.30,NNE,24,2.0,6.0,88,0.00,,,0.00,weatherlink.com 1.10,2013-01-15 03:16:00,
2013-01-14 21:31:00,27.8,25.0,30.29,North,360,4.0,5.0,88,0.00,,,0.00,weatherlink.com 1.10,2013-01-15 03:31:00,
2013-01-14 21:46:00,27.8,25.0,30.29,North,4,3.0,7.0,88,0.00,,,0.00,weatherlink.com 1.10,2013-01-15 03:46:00,
2013-01-14 22:01:00,27.7,25.0,30.28,NNE,16,1.0,8.0,88,0.00,,,0.00,weatherlink.com 1.10,2013-01-15 04:01:00,
2013-01-14 22:16:00,27.7,24.0,30.29,NNE,20,2.0,8.0,87,0.00,,,0.00,weatherlink.com 1.10,2013-01-15 04:16:00,
2013-01-14 22:31:00,27.7,25.0,30.29,NNE,26,3.0,6.0,88,0.00,,,0.00,weatherlink.com 1.10,2013-01-15 04:31:00,
2013-01-14 22:46:00,27.6,24.0,30.29,NNE,23,3.0,6.0,87,0.00,,,0.00,weatherlink.com 1.10,2013-01-15 04:46:00,
2013-01-14 23:16:00,27.4,24.0,30.30,NNE,22,5.0,7.0,87,0.00,,,0.00,weatherlink.com 1.10,2013-01-15 05:16:00,
2013-01-14 23:31:00,27.3,24.0,30.30,NNE,26,3.0,7.0,87,0.00,,,0.00,weatherlink.com 1.10,2013-01-15 05:31:00,
2013-01-14 23:46:00,27.3,24.0,30.30,NNW,335,3.0,8.0,87,0.00,,,0.00,weatherlink.com 1.10,2013-01-15 05:46:00,